User: anonymous   Login
Location: Arthez
(43.0833°N, 0.2500°W)
Time: 12:07:29
(UTC+00:00)
Language:

Cosmos 2333 Rocket - Orbit

View from above orbital plane
View from above orbital plane
View from above satellite
View from above satellite

Ground track
Ground track

The orbit data is extracted from the following two-line orbital elements,

1 24298U 96051B   22021.71258674 -.00000050  00000-0 -37544-6 0  9999
2 24298  70.8202 120.4749 0018426 214.2394 145.7539 14.12402767308716
Epoch (UTC): 21 January 2022 17:06:07
Eccentricity: 0.0018426
inclination: 70.8202°
perigee height: 838 km
apogee height: 864 km
right ascension of ascending node: 120.4749°
argument of perigee: 214.2394°
revolutions per day: 14.12402767
mean anomaly at epoch: 145.7539°
orbit number at epoch: 30871

The dashed part of the orbit path shows where the satellite is in the earth's shadow,  

DLR